TimeCST,TemperatureF,Dew PointF,Humidity,Sea Level PressureIn,VisibilityMPH,Wind Direction,Wind SpeedMPH,Gust SpeedMPH,PrecipitationIn,Events,Conditions,WindDirDegrees,DateUTC
12:15 AM,37.4,35.6,93,29.99,1.8,Calm,Calm,-,N/A,,Overcast,0,2014-02-01 06:15:00
12:35 AM,37.4,35.6,93,29.98,1.5,ESE,3.5,-,N/A,,Mist,110,2014-02-01 06:35:00
12:55 AM,37.4,35.6,93,29.98,1.5,ESE,3.5,-,N/A,,Overcast,120,2014-02-01 06:55:00
1:15 AM,37.4,35.6,93,29.97,1.5,ESE,4.6,-,N/A,,Overcast,120,2014-02-01 07:15:00
1:35 AM,37.4,35.6,93,29.97,2.0,Calm,Calm,-,N/A,,Mist,0,2014-02-01 07:35:00
1:55 AM,37.4,35.6,93,29.95,2.0,ESE,3.5,-,N/A,,Drizzle,120,2014-02-01 07:55:00
2:15 AM,37.4,37.4,100,29.96,2.5,SE,4.6,-,N/A,,Light Drizzle,130,2014-02-01 08:15:00
2:35 AM,37.4,37.4,100,29.95,2.5,SE,3.5,-,0.01,,Light Drizzle,140,2014-02-01 08:35:00
2:55 AM,37.4,37.4,100,29.95,2.5,SE,4.6,-,0.01,Rain,Light Rain,140,2014-02-01 08:55:00
3:15 AM,37.4,37.4,100,29.94,4.0,SE,5.8,-,N/A,,Overcast,140,2014-02-01 09:15:00
3:35 AM,39.2,37.4,93,29.93,5.0,SE,4.6,-,N/A,,Overcast,130,2014-02-01 09:35:00
3:55 AM,39.2,37.4,93,29.92,5.0,SE,5.8,-,N/A,,Overcast,140,2014-02-01 09:55:00
4:15 AM,39.2,37.4,93,29.92,5.0,SSE,4.6,-,N/A,,Overcast,150,2014-02-01 10:15:00
4:35 AM,39.2,37.4,93,29.91,5.0,SE,5.8,-,N/A,,Overcast,140,2014-02-01 10:35:00
4:55 AM,39.2,37.4,93,29.90,5.0,SE,4.6,-,N/A,,Overcast,140,2014-02-01 10:55:00
5:15 AM,39.2,37.4,93,29.90,7.0,SSE,5.8,-,N/A,,Overcast,150,2014-02-01 11:15:00
5:35 AM,39.2,37.4,93,29.88,7.0,SE,6.9,-,N/A,,Overcast,140,2014-02-01 11:35:00
5:55 AM,39.2,37.4,93,29.86,7.0,SSE,9.2,-,N/A,,Overcast,150,2014-02-01 11:55:00
6:15 AM,42.8,37.4,81,29.85,10.0,SSE,6.9,-,N/A,,Overcast,160,2014-02-01 12:15:00
6:35 AM,42.8,37.4,81,29.84,10.0,South,9.2,-,N/A,,Mostly Cloudy,170,2014-02-01 12:35:00
6:55 AM,42.8,37.4,81,29.84,10.0,South,10.4,-,N/A,,Scattered Clouds,180,2014-02-01 12:55:00
7:15 AM,42.8,37.4,81,29.84,10.0,South,11.5,-,N/A,,Scattered Clouds,180,2014-02-01 13:15:00
7:35 AM,42.8,39.2,87,29.85,10.0,South,11.5,-,N/A,,Mostly Cloudy,180,2014-02-01 13:35:00
7:55 AM,42.8,39.2,87,29.85,10.0,South,8.1,-,N/A,,Overcast,180,2014-02-01 13:55:00
8:15 AM,44.6,41.0,87,29.84,10.0,South,11.5,-,N/A,,Overcast,180,2014-02-01 14:15:00
8:35 AM,46.4,42.8,87,29.85,10.0,South,13.8,-,N/A,,Overcast,180,2014-02-01 14:35:00
8:55 AM,46.4,42.8,87,29.84,10.0,South,15.0,19.6,N/A,,Overcast,180,2014-02-01 14:55:00
9:15 AM,48.2,42.8,82,29.85,10.0,South,13.8,-,N/A,,Overcast,190,2014-02-01 15:15:00
9:35 AM,48.2,44.6,87,29.85,10.0,South,11.5,-,N/A,,Overcast,190,2014-02-01 15:35:00
9:55 AM,48.2,44.6,87,29.85,10.0,South,11.5,-,N/A,,Overcast,190,2014-02-01 15:55:00
10:15 AM,50.0,44.6,82,29.85,10.0,SSW,9.2,-,N/A,,Overcast,200,2014-02-01 16:15:00
10:35 AM,51.8,44.6,76,29.85,10.0,SSW,12.7,17.3,N/A,,Overcast,200,2014-02-01 16:35:00
10:55 AM,51.8,46.4,82,29.84,10.0,SSW,11.5,-,N/A,,Overcast,200,2014-02-01 16:55:00
11:15 AM,53.6,46.4,77,29.84,10.0,SSW,9.2,-,N/A,,Overcast,210,2014-02-01 17:15:00
11:35 AM,53.6,46.4,77,29.85,10.0,SSW,8.1,-,N/A,,Overcast,210,2014-02-01 17:35:00
11:55 AM,53.6,46.4,77,29.83,10.0,SSW,6.9,-,N/A,,Overcast,210,2014-02-01 17:55:00
12:15 PM,53.6,46.4,77,29.83,10.0,SSW,6.9,-,N/A,,Overcast,210,2014-02-01 18:15:00
12:35 PM,53.6,48.2,82,29.83,10.0,SW,5.8,-,N/A,Rain,Light Rain,220,2014-02-01 18:35:00
12:55 PM,51.8,48.2,88,29.82,10.0,SSW,6.9,-,N/A,,Overcast,210,2014-02-01 18:55:00
1:15 PM,53.6,48.2,82,29.82,10.0,SW,9.2,-,N/A,Rain,Light Rain,220,2014-02-01 19:15:00
1:35 PM,51.8,48.2,88,29.82,7.0,SW,6.9,-,0.03,Rain,Rain,230,2014-02-01 19:35:00
1:55 PM,51.8,48.2,88,29.82,5.0,WSW,4.6,-,0.05,Rain,Rain,250,2014-02-01 19:55:00
2:15 PM,50.0,48.2,94,29.83,2.0,WSW,3.5,-,N/A,,Drizzle,250,2014-02-01 20:15:00
2:35 PM,50.0,48.2,94,29.83,2.0,WSW,3.5,-,0.02,Rain,Rain,250,2014-02-01 20:35:00
2:55 PM,48.2,48.2,100,29.84,1.2,Calm,Calm,-,0.04,Rain,Light Rain,0,2014-02-01 20:55:00
3:15 PM,50.0,48.2,94,29.85,2.5,WSW,4.6,-,0.02,Rain,Light Rain,250,2014-02-01 21:15:00
3:35 PM,48.2,48.2,100,29.85,1.8,Calm,Calm,-,0.04,Rain,Rain,0,2014-02-01 21:35:00
3:55 PM,48.2,46.4,93,29.86,1.8,NW,8.1,-,0.10,Rain,Rain,310,2014-02-01 21:55:00
4:15 PM,44.6,44.6,100,29.88,5.0,NW,4.6,-,0.03,Rain,Rain,310,2014-02-01 22:15:00
4:35 PM,44.6,42.8,93,29.89,5.0,NW,5.8,-,0.06,Rain,Rain,320,2014-02-01 22:35:00
4:55 PM,44.6,42.8,93,29.90,5.0,NW,4.6,-,0.12,Rain,Rain,320,2014-02-01 22:55:00
5:15 PM,42.8,42.8,100,29.91,5.0,NW,3.5,-,0.03,Rain,Rain,320,2014-02-01 23:15:00
5:35 PM,42.8,41.0,93,29.91,7.0,NNW,8.1,-,0.07,Rain,Rain,340,2014-02-01 23:35:00
5:55 PM,41.0,39.2,93,29.93,5.0,NW,4.6,-,0.10,Rain,Rain,320,2014-02-01 23:55:00
6:15 PM,39.2,39.2,100,29.93,10.0,North,6.9,-,0.03,Rain,Rain,350,2014-02-02 00:15:00
6:35 PM,37.4,37.4,100,29.95,10.0,North,8.1,-,0.04,,Drizzle,350,2014-02-02 00:35:00
6:55 PM,37.4,35.6,93,29.96,10.0,NNW,5.8,-,0.05,Rain,Light Rain,330,2014-02-02 00:55:00
7:15 PM,37.4,35.6,93,29.97,7.0,NNW,5.8,-,N/A,Rain,Rain,340,2014-02-02 01:15:00
7:35 PM,37.4,35.6,93,29.97,10.0,NNW,4.6,-,N/A,,Light Drizzle,340,2014-02-02 01:35:00
7:55 PM,35.6,35.6,100,29.97,10.0,NNW,8.1,-,N/A,,Light Drizzle,340,2014-02-02 01:55:00
8:15 PM,35.6,35.6,100,29.98,10.0,NNW,9.2,-,N/A,Rain,Light Rain,340,2014-02-02 02:15:00
8:35 PM,35.6,33.8,93,30.00,10.0,NNW,6.9,-,N/A,Rain,Light Rain,330,2014-02-02 02:35:00
8:55 PM,35.6,33.8,93,30.00,5.0,NNW,10.4,-,0.01,Rain,Light Rain,340,2014-02-02 02:55:00
9:15 PM,33.8,33.8,100,30.00,10.0,North,9.2,-,N/A,,Drizzle,350,2014-02-02 03:15:00
9:35 PM,33.8,32.0,93,30.01,10.0,NNW,6.9,-,N/A,,Light Drizzle,340,2014-02-02 03:35:00
9:55 PM,33.8,32.0,93,30.01,5.0,NNW,8.1,-,N/A,,Drizzle,340,2014-02-02 03:55:00
10:15 PM,33.8,32.0,93,30.00,4.0,NNW,9.2,-,0.01,,Overcast,340,2014-02-02 04:15:00
10:35 PM,33.8,32.0,93,30.01,2.5,North,8.1,-,0.06,Snow,Light Snow,350,2014-02-02 04:35:00
10:55 PM,33.8,32.0,93,30.00,5.0,NNW,6.9,-,0.07,,Mostly Cloudy,340,2014-02-02 04:55:00
11:15 PM,33.8,32.0,93,30.02,4.0,North,6.9,-,N/A,,Overcast,350,2014-02-02 05:15:00
11:35 PM,33.8,32.0,93,30.03,3.0,North,5.8,-,0.01,Snow,Light Snow,360,2014-02-02 05:35:00
11:55 PM,33.8,32.0,93,30.04,2.5,North,9.2,-,0.02,,Overcast,350,2014-02-02 05:55:00